Starlink 5187

operational
NORAD ID: 54065 Int'l Des: 2022-136 Owner: SPXS Country: US Constellation: starlink
LEOCIRCULAR

关于 Starlink 5187

正在加载描述...

实时位置

正在加载3D地球...

即将过境

高度历史

Altitude vs Time

uPlot chart will show altitude changes over time

两行轨道根数

1 54065U 22136Q 26034.49385343 -.00000252 00000-0 22438-5 0 9992
2 54065 53.2178 137.4835 0001459 97.9641 262.1517 15.08839248181680
Epoch: Feb 3, 2026 • Age: 9 hours

当前状态

高度 557.7 km
速度 7.58 km/s
星下点 -49.37°S, 71.82°W
发射日期 Oct 20, 2022
运行时间 3.2 years
类型 internet

技术详情

分类 Payload
质量 305.00 kg
干质量 290.00 kg
总质量 305.00 kg
长度 0.20 m
直径 2.80 m
跨度 9.00 m
形状 Box + pan
制造商 SPXS
平台类型 Starlink
阶段状态 In Orbit
所有者/国家 SPXS/US

大型星座

Loading constellations...